[[{"header":{"parameterUnit":"m.s-1","parameterCategory":1,"la1":30.2991,"la2":30.254,"lo1":-89.0895,"lo2":-89.0444,"dy":0.0017,"dx":0.0017,"nx":28,"ny":28,"refTime":"2024-05-21T09:00:00:Z","depth":0,"parameterNumber":2,"parameterNumberName":"U-component_of_WINDS"},"data":[0,0,0,0,0,0,0,0,0,0,0,0,0,0,0,0,0,0,0,0,0,0,0,0,0,0,0,0,0,0,0,0,0,0,0,0,0,0,0,0,0,0,0,0,0,0,0,0,0,0,0,0,0,0,0,0,0,0,0.603,0.603,0,0.5982,0.5981,0.5981,0.5929,0.5928,0.5928,0.5927,0.5877,0.5877,0.5876,0,0,0,0,0,0,0,0,0,0,0,0,0,0.6078,0.6077,0.603,0.603,0.6029,0.5982,0.5981,0.598,0.5929,0.5928,0.5928,0.5927,0.5878,0.5877,0.5876,0,0,0,0,0,0,0,0,0,0,0,0,0,0.6046,0.6077,0.603,0.5998,0.5994,0.5982,0.5981,0.598,0.593,0.5928,0.5927,0.5926,0.5878,0.5877,0.5876,0.5892,0,0,0.5873,0.5873,0,0,0,0,0,0,0,0,0.6048,0.6044,0.6003,0.6,0.5996,0.596,0.598,0.595,0.593,0.5954,0.5927,0.5926,0.5906,0.5903,0.5896,0.5889,0.5887,0.5873,0.5872,0.5872,0.5872,0,0,0,0,0,0,0,0.605,0.6046,0.6011,0.6003,0.5998,0.5985,0.598,0.5974,0.5937,0.5952,0.5948,0.5943,0.5904,0.5897,0.5894,0.5886,0.5873,0.5872,0.5872,0.5871,0.5888,0.5889,0,0,0,0,0,0,0.6057,0.6048,0.6013,0.601,0.602,0.5985,0.5979,0.5973,0.5937,0.593,0.5944,0.5941,0.5899,0.5895,0.5892,0.5906,0.5872,0.5871,0.587,0.5887,0.5888,0.5889,0,0,0,0,0,0,0.6059,0.6055,0.6014,0.6028,0.6022,0.5986,0.5979,0.5973,0.5966,0.5931,0.5924,0.5944,0.5898,0.5894,0.5892,0.5904,0.5871,0.587,0.5885,0.5887,0.5888,0.5935,0,0,0,0,0,0,0.606,0.6055,0.6061,0.6028,0.6021,0.6015,0.598,0.5972,0.5964,0.5959,0.5929,0.5922,0.5897,0.5893,0.5891,0.5902,0.5869,0.5884,0.5886,0.5888,0.5933,0.5938,0.5943,0,0,0,0,0,0.6062,0.6077,0.6062,0.6058,0.6028,0.6016,0.6012,0.5982,0.5965,0.597,0.5948,0.5923,0.5903,0.5894,0.589,0.5901,0.5883,0.5885,0.5888,0.593,0.5937,0.5943,0,0,0,0,0,0,0.6113,0.6072,0.6055,0.606,0.6041,0.6007,0.6013,0.5991,0.5977,0.5973,0.5937,0.5931,0.5932,0.5917,0.5907,0.5913,0.589,0.5891,0.5923,0.5929,0.5935,0.5938,0.5868,0,0,0,0,0,0.6124,0.6118,0.6083,0.6091,0.6082,0.6049,0.6043,0.6022,0.6001,0.5993,0.5971,0.5952,0.5941,0.5935,0.5923,0.593,0.5922,0.5936,0.5942,0.5946,0.5948,0.5948,0.5954,0.5896,0.5896,0.5896,0,0,0.6148,0.6125,0.6124,0.61,0.6083,0.6077,0.6043,0.6039,0.6033,0.5993,0.5989,0.5971,0.5948,0.595,0.595,0.5937,0.5962,0.5949,0.5953,0.5952,0.5951,0.5957,0.5962,0.5898,0.5898,0.5897,0,0,0.6188,0.6171,0.6174,0.6158,0.6134,0.6111,0.6112,0.6081,0.6068,0.6063,0.6032,0.6025,0.6008,0.5992,0.5981,0.6014,0.5991,0.6012,0.6039,0.604,0.6045,0.6048,0.6058,0.6062,0.6013,0.6014,0.6014,0,0.6221,0.6211,0.6179,0.6176,0.6165,0.6128,0.6131,0.6117,0.609,0.6083,0.6069,0.6045,0.6027,0.6024,0.6032,0.6025,0.6024,0.6014,0.6047,0.605,0.6053,0.6062,0.6066,0.6016,0.6016,0.6016,0.6015,0,0.6251,0.6244,0.625,0.6224,0.6215,0.6215,0.6182,0.6176,0.6156,0.6135,0.613,0.6106,0.6088,0.6086,0.6067,0.608,0.6072,0.6053,0.6029,0.6062,0.6069,0.6073,0.602,0.6019,0.6018,0.6017,0,0,0.6321,0.6277,0.628,0.6266,0.6236,0.623,0.6228,0.621,0.6204,0.6187,0.6183,0.6169,0.615,0.6138,0.6116,0.6118,0.6142,0.6098,0.6096,0.6105,0.6153,0.6167,0.6171,0.6127,0.6128,0.6128,0.6155,0,0.6354,0.6348,0.6319,0.632,0.6313,0.6277,0.6275,0.6255,0.6236,0.6226,0.6204,0.6193,0.6171,0.6163,0.6163,0.614,0.6151,0.6137,0.6122,0.6122,0.6127,0.6176,0.619,0.6216,0.6158,0.6158,0.6159,0,0.6392,0.6376,0.6377,0.6345,0.6341,0.6339,0.632,0.6311,0.6288,0.6274,0.626,0.6235,0.6229,0.6207,0.6198,0.6189,0.6181,0.6169,0.6169,0.6165,0.6141,0.6171,0.6224,0.6227,0.6163,0.6163,0.6163,0,0.6441,0.642,0.6417,0.6407,0.6371,0.637,0.6355,0.633,0.6321,0.6304,0.6297,0.628,0.627,0.6257,0.6228,0.6215,0.6221,0.6197,0.6207,0.6208,0.6209,0.6209,0.626,0.6207,0.6207,0.6207,0.6207,0,0.648,0.6481,0.6438,0.6436,0.6436,0.6403,0.6403,0.6385,0.6363,0.6356,0.6325,0.6319,0.6282,0.6271,0.6248,0.6243,0.6239,0.6227,0.622,0.6228,0.623,0.6221,0.6218,0.6208,0.6208,0.6208,0.6208,0,0.6533,0.6505,0.6499,0.6464,0.6456,0.6457,0.6427,0.6424,0.6402,0.6394,0.639,0.6356,0.6341,0.6311,0.6289,0.6274,0.6273,0.6263,0.6281,0.6277,0.6288,0.6287,0.6333,0.6337,0.6284,0.6285,0.6285,0,0.6559,0.6559,0.6525,0.6518,0.6504,0.6493,0.6483,0.6451,0.6441,0.6414,0.6414,0.6397,0.6382,0.6361,0.6334,0.6316,0.6304,0.6321,0.6301,0.6309,0.6302,0.6301,0.63,0.6326,0.6326,0.6327,0.6328,0,0.6607,0.6593,0.658,0.6562,0.655,0.6534,0.6517,0.6513,0.6476,0.6467,0.6452,0.644,0.6417,0.64,0.6378,0.6362,0.6338,0.6334,0.6335,0.6343,0.6353,0.6345,0.6291,0.6333,0.6332,0.6332,0.6332,0.6332,0.6646,0.6644,0.6619,0.6605,0.6588,0.6572,0.6567,0.6544,0.6531,0.651,0.6491,0.6478,0.6453,0.6421,0.6406,0.6394,0.6383,0.6385,0.6385,0.6386,0.6388,0.6356,0.6391,0.639,0.639,0.639,0.639,0,0.6691,0.6674,0.6661,0.6637,0.6626,0.6605,0.6584,0.6576,0.6564,0.6544,0.6529,0.6511,0.6495,0.6466,0.6447,0.6442,0.6431,0.6438,0.6437,0.6434,0.6401,0.6401,0.6448,0.6448,0.6448,0.6448,0.6448,0.6448,0.6713,0.6708,0.669,0.6676,0.6658,0.6644,0.6634,0.6618,0.6601,0.6583,0.6569,0.655,0.6526,0.6504,0.6488,0.648,0.6473,0.6484,0.6472,0.6442,0.6436,0.6431,0.6431,0.6483,0.6483,0.6505,0.6506,0.6506]},{"header":{"parameterUnit":"m.s-1","parameterCategory":1,"la1":30.2991,"la2":30.254,"lo1":-89.0895,"lo2":-89.0444,"dy":0.0017,"dx":0.0017,"nx":28,"ny":28,"refTime":"2024-05-21T09:00:00:Z","depth":0,"parameterNumber":3,"parameterNumberName":"V-component_of_WINDS"},"data":[0,0,0,0,0,0,0,0,0,0,0,0,0,0,0,0,0,0,0,0,0,0,0,0,0,0,0,0,0,0,0,0,0,0,0,0,0,0,0,0,0,0,0,0,0,0,0,0,0,0,0,0,0,0,0,0,0,0,4.1184,4.1185,0,4.1325,4.1326,4.1328,4.1316,4.1313,4.1311,4.1309,4.1449,4.1454,4.146,0,0,0,0,0,0,0,0,0,0,0,0,0,4.0898,4.0904,4.1183,4.1185,4.1187,4.1325,4.1327,4.1328,4.1316,4.1313,4.1311,4.1308,4.1447,4.1454,4.1461,0,0,0,0,0,0,0,0,0,0,0,0,0,4.1029,4.0906,4.1183,4.1197,4.12,4.1324,4.1327,4.1329,4.1316,4.1313,4.131,4.1307,4.1445,4.1453,4.1462,4.1579,0,0,4.1488,4.1491,0,0,0,0,0,0,0,0,4.1022,4.104,4.1194,4.1197,4.12,4.1299,4.1277,4.1413,4.1317,4.1272,4.1309,4.1305,4.1401,4.1413,4.1447,4.1586,4.1592,4.1489,4.1494,4.1497,4.15,0,0,0,0,0,0,0,4.1013,4.1033,4.1239,4.1196,4.12,4.1195,4.121,4.1303,4.1353,4.1276,4.1275,4.1292,4.1402,4.1439,4.145,4.1594,4.1488,4.1496,4.1501,4.1505,4.1835,4.1839,0,0,0,0,0,0,4.1001,4.1026,4.1235,4.1243,4.1101,4.1203,4.122,4.1271,4.1352,4.1361,4.1295,4.1291,4.1425,4.144,4.1455,4.1597,4.1497,4.1505,4.151,4.1832,4.1836,4.184,0,0,0,0,0,0,4.0995,4.102,4.1229,4.1135,4.1161,4.1212,4.1268,4.1275,4.1311,4.1367,4.1375,4.1323,4.1423,4.1443,4.1549,4.1602,4.1509,4.1517,4.1828,4.1833,4.1838,4.1883,0,0,0,0,0,0,4.0987,4.1018,4.1064,4.1136,4.1166,4.1322,4.1272,4.128,4.1327,4.1323,4.1395,4.1404,4.1422,4.1536,4.1557,4.1612,4.1524,4.1823,4.183,4.1837,4.1877,4.189,4.19,0,0,0,0,0,4.0977,4.107,4.1066,4.1091,4.1225,4.1325,4.1342,4.1363,4.1331,4.1377,4.1413,4.1401,4.1593,4.1547,4.1571,4.1629,4.182,4.1828,4.1836,4.1872,4.1887,4.19,0,0,0,0,0,0,4.1,4.1079,4.1076,4.1196,4.1254,4.1323,4.1381,4.1379,4.1446,4.1439,4.1461,4.1478,4.1584,4.1617,4.1564,4.1747,4.1702,4.1715,4.1721,4.1736,4.1747,4.1736,4.1531,0,0,0,0,0,4.102,4.1096,4.116,4.1259,4.1289,4.133,4.1375,4.1386,4.1447,4.1471,4.1514,4.1572,4.1645,4.1692,4.1763,4.1883,4.1897,4.1934,4.1946,4.1955,4.1966,4.2031,4.2048,4.1867,4.1867,4.1867,0,0,4.106,4.1113,4.1159,4.1266,4.1312,4.1389,4.1351,4.1434,4.1491,4.1482,4.1585,4.1619,4.1685,4.1798,4.185,4.1829,4.2019,4.1966,4.1972,4.1978,4.2041,4.2058,4.2073,4.1873,4.1872,4.1871,0,0,4.1173,4.1221,4.1309,4.1357,4.1428,4.1455,4.1476,4.1546,4.1569,4.1673,4.1669,4.1736,4.1862,4.1909,4.1949,4.2081,4.2073,4.2103,4.2162,4.2226,4.224,4.2253,4.2299,4.2315,4.2114,4.2114,4.2114,0,4.1213,4.133,4.1354,4.1438,4.1484,4.1483,4.1571,4.1616,4.1706,4.1738,4.1713,4.1872,4.1916,4.204,4.2072,4.2105,4.2129,4.2094,4.2236,4.2249,4.2261,4.2305,4.2323,4.2117,4.2117,4.2117,4.2116,0,4.1376,4.1457,4.152,4.1609,4.1662,4.1748,4.1783,4.1834,4.1842,4.1871,4.1976,4.203,4.2111,4.2142,4.2149,4.2267,4.2251,4.2232,4.2187,4.2281,4.2323,4.234,4.2122,4.2121,4.212,4.2119,0,0,4.1506,4.1608,4.1631,4.1671,4.175,4.1813,4.1898,4.198,4.2023,4.2085,4.2156,4.2264,4.2246,4.2292,4.2305,4.236,4.246,4.2334,4.2336,4.2354,4.2592,4.2606,4.2625,4.2456,4.2459,4.2462,4.2586,0,4.1626,4.1779,4.1802,4.1936,4.2011,4.2011,4.2086,4.2142,4.2172,4.2238,4.2271,4.2346,4.2318,4.2346,4.2401,4.2436,4.2508,4.2428,4.2521,4.2524,4.2503,4.2647,4.2662,4.2776,4.2603,4.2606,4.2608,0,4.1785,4.1854,4.1996,4.2066,4.2098,4.2164,4.2241,4.2305,4.2368,4.2386,4.2438,4.2444,4.2531,4.2484,4.2604,4.2549,4.2588,4.2611,4.2616,4.2625,4.257,4.2658,4.2814,4.283,4.2634,4.2632,4.263,0,4.1865,4.1993,4.2094,4.2129,4.2213,4.2259,4.2296,4.2357,4.2404,4.247,4.2501,4.2576,4.2617,4.2674,4.27,4.2663,4.2818,4.2773,4.2833,4.2833,4.2865,4.2862,4.3028,4.2892,4.2892,4.2892,4.2891,0,4.1995,4.2081,4.2131,4.2193,4.2289,4.2316,4.241,4.2446,4.25,4.2567,4.2572,4.2635,4.2666,4.2734,4.2754,4.285,4.2868,4.2884,4.2888,4.2883,4.2881,4.2908,4.29,4.2896,4.2895,4.2894,4.2894,0,4.2099,4.2136,4.2246,4.2318,4.2338,4.2405,4.2466,4.2525,4.2555,4.2641,4.2663,4.271,4.279,4.2822,4.2919,4.2933,4.3042,4.3041,4.3021,4.3022,4.3081,4.3074,4.3269,4.3295,4.3143,4.3145,4.3146,0,4.2179,4.2246,4.2325,4.2372,4.2411,4.2486,4.2535,4.2563,4.2614,4.2692,4.2742,4.2822,4.2888,4.3015,4.3057,4.3131,4.313,4.3194,4.3141,4.3134,4.313,4.3125,4.3132,4.3202,4.3204,4.3205,4.3206,0,4.2317,4.2332,4.2404,4.2482,4.2541,4.2603,4.2663,4.2701,4.2739,4.2795,4.2878,4.2929,4.303,4.3109,4.3186,4.3222,4.322,4.3223,4.324,4.3235,4.3221,4.3228,4.3046,4.3218,4.3216,4.3216,4.3215,4.3214,4.2411,4.247,4.2536,4.2615,4.2664,4.2721,4.278,4.2819,4.2889,4.2974,4.2987,4.3075,4.3136,4.324,4.3279,4.3348,4.3331,4.3357,4.3364,4.3369,4.3373,4.3211,4.3362,4.3362,4.3361,4.3361,4.3361,0,4.2548,4.2591,4.2664,4.2749,4.2811,4.2807,4.2874,4.2925,4.3004,4.3062,4.3127,4.3222,4.33,4.3348,4.3425,4.3471,4.3472,4.349,4.3486,4.3494,4.3384,4.336,4.3488,4.3488,4.3488,4.3488,4.3487,4.3487,4.2627,4.2727,4.275,4.2875,4.2916,4.3004,4.3043,4.3095,4.3141,4.3248,4.3313,4.3344,4.3398,4.348,4.355,4.3562,4.359,4.3609,4.3619,4.3515,4.3502,4.3489,4.3467,4.3615,4.3615,4.3724,4.3725,4.3726]}]]